Terminal Aerodrome Forecast
Issued by NWS

Home | Current Version | Previous Version | Text Only | Print | Product List | Glossary On
Versions: 1 2 3 4 5 6 7 8 9 10 11 12 13 14 15 16 17 18 19 20 21 22 23 24 25 26 27
000
FTUS41 KAKQ 231311 AAA
TAFPHF
TAF AMD
KPHF 231311Z 2313/2412 02003KT 1SM BR OVC003
     FM231500 04005KT 3SM BR OVC003
     FM232000 VRB03KT P6SM BKN005
     FM232200 VRB03KT P6SM BKN025
     FM232300 VRB03KT P6SM SCT045
     FM240100 VRB03KT 5SM BR SCT080
     FM240500 21005KT 2SM BR SCT120
     FM240800 22005KT 1SM BR BKN025=

USA.gov is the U.S. government's official web portal to all federal, state and local government web resources and services.